Location: Del Amo
(33.8464°N, 118.2104°W)
Time: 22:34:41
(UTC+00:00)

Vanguard 2 - All Passes

Search period start: 11 September 2024 00:00
Search period end: 21 September 2024 00:00
Orbit: 552 x 2911 km, 32.9° (Epoch: 11 September)

Date Brightness Start Highest point End Pass type
(mag) Time Alt. Az. Time Alt. Az. Time Alt. Az.
11 Sep - 09:52:00 10° SSE 09:53:56 12° SE 09:56:07 10° ESE visible
11 Sep - 11:55:26 10° SW 12:00:53 55° SSE 12:09:48 10° E visible
11 Sep - 14:02:23 10° W 14:09:50 86° S 14:22:44 10° E daylight
11 Sep - 16:10:15 10° W 16:20:15 73° SSW 16:36:11 10° ESE daylight
11 Sep - 18:19:24 10° W 18:31:23 44° SSW 18:47:14 10° SE daylight
11 Sep - 20:33:17 10° WSW 20:42:24 18° SW 20:52:14 10° S daylight
12 Sep - 10:04:09 10° S 10:07:26 18° SE 10:11:33 10° E visible
12 Sep - 12:09:11 10° WSW 12:14:44 66° SSE 12:23:58 10° E visible
12 Sep - 14:16:20 10° W 14:23:54 85° S 14:36:57 10° E daylight
12 Sep - 16:24:16 10° W 16:34:17 65° SSW 16:50:03 10° ESE daylight
12 Sep - 18:33:50 10° W 18:45:19 36° SSW 19:00:07 10° SSE daylight
12 Sep - 20:51:18 10° WSW 20:56:16 12° SW 21:01:27 10° SSW daylight
13 Sep - 10:17:08 10° SSW 10:20:59 26° SE 10:26:12 10° E visible
13 Sep - 12:23:01 10° WSW 12:28:39 75° SSE 12:38:09 10° E visible
13 Sep - 14:30:18 10° W 14:37:58 82° S 14:51:08 10° ESE daylight
13 Sep - 16:38:18 10° W 16:48:18 57° SSW 17:03:44 10° SE daylight
13 Sep - 18:48:33 10° W 18:59:14 29° SSW 19:12:38 10° SSE daylight
14 Sep - 10:30:29 10° SW 10:34:38 36° SSE 10:40:33 10° E visible
14 Sep - 12:36:54 10° W 12:42:37 81° S 12:52:18 10° E visible
14 Sep - 14:44:15 10° W 14:51:59 77° S 15:05:14 10° ESE daylight
14 Sep - 16:52:25 10° W 17:02:18 48° SSW 17:17:10 10° SE daylight
14 Sep - 19:03:43 10° WSW 19:13:11 22° SW 19:24:33 10° S daylight
15 Sep - 10:44:03 10° SW 10:48:23 48° SSE 10:54:45 10° E visible
15 Sep - 12:50:50 10° W 12:56:37 84° S 13:06:28 10° E visible
15 Sep - 14:58:13 10° W 15:06:00 69° SSW 15:19:14 10° ESE daylight
15 Sep - 17:06:40 10° W 17:16:17 40° SSW 17:30:20 10° SE daylight
15 Sep - 19:19:49 10° WSW 19:27:09 16° SW 19:35:32 10° S daylight
16 Sep - 08:52:53 10° S 08:55:04 14° SE 08:57:28 10° ESE night (unlit)
16 Sep - 10:57:46 10° WSW 11:02:12 60° SSE 11:08:52 10° E visible
16 Sep - 13:04:45 10° W 13:10:36 84° S 13:20:37 10° E visible
16 Sep - 15:12:11 10° W 15:20:00 60° SSW 15:33:04 10° ESE daylight
16 Sep - 17:21:07 10° W 17:30:17 32° SSW 17:43:09 10° SSE daylight
16 Sep - 19:39:45 10° SW 19:41:11 10° SW 19:42:39 10° SSW daylight
17 Sep - 09:05:37 10° SSW 09:08:43 21° SSE 09:12:17 10° E night (unlit)
17 Sep - 11:11:35 10° WSW 11:16:05 71° SSE 11:22:58 10° E visible
17 Sep - 13:18:40 10° W 13:24:37 80° S 13:34:43 10° ESE daylight
17 Sep - 15:26:13 10° W 15:34:00 51° SSW 15:46:42 10° SE daylight
17 Sep - 17:35:53 10° W 17:44:18 25° SSW 17:55:31 10° SSE daylight
18 Sep - 09:18:54 10° SW 09:22:25 30° SSE 09:26:38 10° E visible
18 Sep - 11:25:27 10° W 11:30:02 79° S 11:37:03 10° E visible
18 Sep - 13:32:35 10° W 13:38:35 73° S 13:48:46 10° ESE daylight
18 Sep - 15:40:19 10° W 15:48:00 42° SSW 16:00:05 10° SE daylight
18 Sep - 17:51:14 10° WSW 17:58:20 18° SSW 18:07:12 10° S daylight
19 Sep - 09:32:25 10° SW 09:36:11 42° SSE 09:40:48 10° E visible
19 Sep - 11:39:21 10° W 11:43:58 83° S 11:51:08 10° E visible
19 Sep - 13:46:31 10° W 13:52:33 63° SSW 14:02:42 10° ESE daylight
19 Sep - 15:54:36 10° W 16:02:00 33° SSW 16:13:11 10° SSE daylight
19 Sep - 18:08:01 10° SW 18:12:24 12° SSW 18:17:22 10° SSW daylight
20 Sep - 07:40:42 10° S 07:42:43 13° SSE 07:44:41 10° ESE night (unlit)
20 Sep - 09:46:08 10° WSW 09:50:01 55° SSE 09:54:52 10° E visible
20 Sep - 11:53:15 10° W 11:57:55 81° S 12:05:12 10° E visible
20 Sep - 14:00:29 10° W 14:06:31 53° SSW 14:16:29 10° SE daylight
20 Sep - 16:09:06 10° WSW 16:16:02 26° SSW 16:25:53 10° SSE daylight
